Home   Weather   Kahramanmaraş   Past weeks
Flag for Turkey

Past Weather in Kahramanmaraş, Turkey — Yesterday and Last 2 Weeks

Now
72 °F

Clear.


Feels Like: 76 °F
Forecast: 90 / 59 °F
Wind: 7 mph from East

Location: Kahramanmaraş

Current Time: Oct 14, 2019 at 11:56:35 pm

Latest Report: Oct 14, 2019 at 10:50 pm


Visibility: 10 mi

Pressure: 30.15 "Hg (28.27 "Hg at 556m altitude)

Humidity: 31%

Dew Point: 39 °F

Location of KahramanmaraşLocation

Past Weather in Kahramanmaraş — Graph

°F

Kahramanmaraş Temperature Yesterday

Maximum temperature yesterday: 90 °F (at 1:50 pm)
Minimum temperature yesterday: 57 °F (at 6:50 am)
Average temperature yesterday: 73 °F

High & Low Weather Summary for the Past Weeks

 TemperatureHumidityPressure
High93 °F (Oct 2, 2:50 pm)83% (Oct 6, 4:10 am)30.24 "Hg (Oct 6, 4:10 am)
Low57 °F (Oct 9, 6:50 am)11% (Oct 10, 4:50 pm)29.74 "Hg (Oct 6, 2:50 pm)
Average74 °F47%29.97 "Hg
* Reported Sep 29 9:50 pm — Oct 14 9:50 pm, Kahramanmaraş. Weather by CustomWeather, © 2019

Note: Actual official high and low records may vary slightly from our data, if they occured in-between our weather recording intervals... More about our weather records

Advertising

Kahramanmaraş Weather History for the Previous 24 Hours

Scroll right to see more
 ConditionsComfort  
Time TempWeatherWind HumidityBarometerVisibility
9:50 pm
Mon, Oct 14
73 °FClear.9 mph29%30.12 "Hg10 mi
8:50 pm77 °FClear.10 mph26%30.12 "Hg10 mi
7:50 pm79 °FClear.12 mph24%30.12 "Hg10 mi
6:50 pm81 °FClear.7 mph23%30.12 "Hg10 mi
5:50 pm86 °FSunny.6 mph19%30.09 "Hg10 mi
4:50 pm88 °FSunny.7 mph18%30.09 "Hg10 mi
3:50 pm90 °FSunny.7 mph17%30.12 "Hg10 mi
2:50 pm91 °FPassing clouds.5 mph16%30.12 "HgN/A
1:50 pm90 °FPassing clouds.3 mph17%30.12 "HgN/A
12:50 pm88 °FPassing clouds.5 mph18%30.15 "HgN/A
11:50 am82 °FSunny.6 mph26%30.18 "Hg10 mi
10:50 am79 °FSunny.1 mph30%30.21 "Hg10 mi
9:50 am75 °FSunny.No wind34%30.21 "Hg10 mi
8:50 am70 °FSunny.1 mph40%30.24 "Hg10 mi
7:50 am63 °FSunny.5 mph42%30.21 "Hg10 mi
6:50 am59 °FSunny.3 mph51%30.18 "Hg10 mi
5:50 am57 °FClear.5 mph51%30.18 "Hg10 mi
4:50 am57 °FClear.2 mph48%30.18 "Hg10 mi
3:50 am59 °FClear.5 mph45%30.15 "Hg10 mi
2:50 am61 °FClear.1 mph45%30.15 "Hg10 mi
1:50 am63 °FClear.8 mph42%30.18 "Hg10 mi
12:50 am64 °FClear.7 mph43%30.18 "Hg10 mi
11:50 pm
Sun, Oct 13
64 °FPassing clouds.3 mph46%30.15 "HgN/A
Weather by CustomWeather, © 2019

See weather overview